SVFLIR Weather Reports


Display with metric or nautical units.
time (UTC)temp
F
wind
direction
speed
MPH
gust
MPH
rain 1hr
in
rain 24hr
in
rain mn
in
humidity
%
barometer
mb
20260905170853 85 153 0.0 3.0 0.00 0.00 0.00 100 1009.4
20260905170351 83 153 0.0 5.0 0.00 0.00 0.00 100 1009.4
20260905165846 89 225 0.0 5.0 0.00 0.00 0.00 100 1009.4
20260905165339 90 243 3.0 5.0 0.00 0.00 0.00 100 1009.4
20260905164838 90 202 1.0 6.0 0.00 0.00 0.00 100 1009.4
20260905164337 90 203 3.0 6.0 0.00 0.00 0.00 100 1009.4
20260905164055 88 248 0.0 4.0 0.00 0.00 0.00 100 1009.4
20260905163332 88 156 0.0 0.0 0.00 0.00 0.00 100 1009.4
20260905163050 87 156 0.0 2.0 0.00 0.00 0.00 100 1009.4
20260905162505 86 156 0.0 3.0 0.00 0.00 0.00 100 1009.4
20260905161732 86 171 2.0 3.0 0.00 0.00 0.00 100 1009.4
20260905161231 87 198 0.0 3.0 0.00 0.00 0.00 100 1009.4
20260905160728 86 248 0.0 0.0 0.00 0.00 0.00 100 1009.4
20260905160227 86 248 0.0 0.0 0.00 0.00 0.00 100 1009.4
20260905155948 87 248 0.0 0.0 0.00 0.00 0.00 100 1009.4
20260905155218 87 248 0.0 0.0 0.00 0.00 0.00 100 1009.4
20260905154708 88 248 0.0 0.0 0.00 0.00 0.00 100 1009.4
20260905154207 87 248 0.0 0.0 0.00 0.00 0.00 100 1009.4
20260905153701 86 248 0.0 0.0 0.00 0.00 0.00 100 1009.4
20260905153134 85 248 0.0 3.0 0.00 0.00 0.00 100 1009.4
20260905152626 87 248 1.0 3.0 0.00 0.00 0.00 100 1009.4
20260905152118 85 16 0.0 0.0 0.00 0.00 0.00 100 1009.4
20260905151559 85 16 0.0 0.0 0.00 0.00 0.00 100 1009.4
20260905151028 87 16 0.0 0.0 0.00 0.00 0.00 100 1009.4
20260905145959 85 16 0.0 2.0 0.00 0.00 0.00 100 1009.4
20260905145448 84 16 0.0 2.0 0.00 0.00 0.00 100 1009.4
20260905144931 83 16 1.0 2.0 0.00 0.00 0.00 100 1009.4
20260905144428 82 90 0.0 0.0 0.00 0.00 0.00 100 1009.4
20260905143422 81 90 0.0 0.0 0.00 0.00 0.00 100 1009.4
20260905142916 80 90 0.0 0.0 0.00 0.00 0.00 100 1009.4
20260905142413 80 90 0.0 0.0 0.00 0.00 0.00 100 1009.4
20260905142131 80 90 0.0 0.0 0.00 0.00 0.00 100 1009.4
20260905141621 81 90 0.0 0.0 0.00 0.00 0.00 100 1009.4
20260905140847 77 90 0.0 0.0 0.00 0.00 0.00 100 1009.4
20260905140553 77 90 0.0 1.0 0.00 0.00 0.00 100 1009.4
20260905135831 74 90 0.0 1.0 0.00 0.00 0.00 100 1009.4
20260905135323 73 90 0.0 1.0 0.00 0.00 0.00 100 1009.4
20260905134820 73 229 0.0 0.0 0.00 0.00 0.00 100 1009.4
20260905134311 72 229 0.0 0.0 0.00 0.00 0.00 100 1009.4
20260905133752 72 229 0.0 0.0 0.00 0.00 0.00 100 1009.4
20260905133242 73 229 0.0 0.0 0.00 0.00 0.00 100 1009.4
20260905132731 73 229 0.0 0.0 0.00 0.00 0.00 100 1009.4
20260905132218 74 229 0.0 0.0 0.00 0.00 0.00 100 1009.4
20260905131651 71 229 0.0 0.0 0.00 0.00 0.00 100 1009.4
20260905131140 71 229 0.0 0.0 0.00 0.00 0.00 100 1009.4
20260905130636 71 229 0.0 0.0 0.00 0.00 0.00 100 1009.4
20260905130332 72 229 0.0 0.0 0.00 0.00 0.00 100 1009.4
20260905125610 72 229 0.0 0.0 0.00 0.00 0.00 100 1009.4
20260905125110 71 229 0.0 0.0 0.00 0.00 0.00 100 1009.4
20260905124546 69 229 0.0 0.0 0.00 0.00 0.00 100 1009.4
20260905124045 70 229 0.0 0.0 0.00 0.00 0.00 100 1009.4
20260905123535 71 229 0.0 0.0 0.00 0.00 0.00 100 1009.4
20260905122956 69 229 0.0 0.0 0.00 0.00 0.00 100 1009.4
20260905122433 70 229 0.0 0.0 0.00 0.00 0.00 100 1009.4
20260905121902 70 229 0.0 0.0 0.00 0.00 0.00 100 1009.4
20260905121351 71 229 0.0 0.0 0.00 0.00 0.00 100 1009.4
20260905120850 71 229 0.0 0.0 0.00 0.00 0.00 100 1009.4
20260905120340 71 229 0.0 0.0 0.00 0.00 0.00 100 1009.4
20260905115816 71 229 0.0 0.0 0.00 0.00 0.00 100 1009.4
20260905115316 72 229 0.0 0.0 0.00 0.00 0.00 100 1009.4
20260905114806 73 229 0.0 0.0 0.00 0.00 0.00 100 1009.4
20260905114224 74 229 0.0 0.0 0.00 0.00 0.00 100 1009.4
20260905113711 74 229 0.0 0.0 0.00 0.00 0.00 100 1009.4
20260905112907 74 229 0.0 0.0 0.00 0.00 0.00 100 1009.4
20260905112137 73 229 0.0 0.0 0.00 0.00 0.00 100 1009.4
20260905111121 73 229 0.0 0.0 0.00 0.00 0.00 100 1009.4
20260905110602 73 229 0.0 0.0 0.00 0.00 0.00 100 1009.4
20260905110036 73 229 0.0 0.0 0.00 0.00 0.00 100 1009.4
20260905105508 68 229 0.0 0.0 0.00 0.00 0.00 100 1009.4
20260905104954 64 229 0.0 0.0 0.00 0.00 0.00 100 1009.4
20260905104449 68 229 0.0 0.0 0.00 0.00 0.00 100 1009.4
20260905103938 68 229 0.0 0.0 0.00 0.00 0.00 100 1009.4
20260905103435 68 229 0.0 0.0 0.00 0.00 0.00 100 1009.4
20260905102927 72 229 0.0 0.0 0.00 0.00 0.00 100 1009.4
20260905102647 72 229 0.0 0.0 0.00 0.00 0.00 100 1009.4
20260905101415 68 229 0.0 0.0 0.00 0.00 0.00 100 1009.4
20260905100912 69 229 0.0 0.0 0.00 0.00 0.00 100 1009.4
20260905100409 71 229 0.0 0.0 0.00 0.00 0.00 100 1009.4
20260905095855 72 229 0.0 0.0 0.00 0.00 0.00 100 1009.4
20260905095616 73 229 0.0 0.0 0.00 0.00 0.00 100 1009.4
20260905094847 74 229 0.0 0.0 0.00 0.00 0.00 100 1009.4
20260905094331 75 229 0.0 0.0 0.00 0.00 0.00 100 1009.4
20260905094050 75 229 0.0 0.0 0.00 0.00 0.00 100 1009.4
20260905093536 73 229 0.0 0.0 0.00 0.00 0.00 100 1009.4
20260905092750 68 229 0.0 0.0 0.00 0.00 0.00 100 1009.4
20260905092249 67 229 0.0 0.0 0.00 0.00 0.00 100 1009.4
20260905091748 70 229 0.0 0.0 0.00 0.00 0.00 100 1009.4
20260905091247 72 229 0.0 0.0 0.00 0.00 0.00 100 1009.4
20260905090214 72 229 0.0 0.0 0.00 0.00 0.00 100 1009.4
20260905085714 74 229 0.0 0.0 0.00 0.00 0.00 100 1009.4
20260905085207 72 229 0.0 0.0 0.00 0.00 0.00 100 1009.4
20260905084648 71 229 0.0 0.0 0.00 0.00 0.00 100 1009.4
20260905084148 74 229 0.0 0.0 0.00 0.00 0.00 100 1009.4
20260905083633 74 229 0.0 0.0 0.00 0.00 0.00 100 1009.4
20260905083123 78 229 0.0 0.0 0.00 0.00 0.00 100 1009.4
20260905082610 77 229 0.0 0.0 0.00 0.00 0.00 100 1009.4
20260905082058 79 229 0.0 0.0 0.00 0.00 0.00 100 1009.4
20260905081557 79 229 0.0 0.0 0.00 0.00 0.00 100 1009.4
20260905081039 78 229 0.0 0.0 0.00 0.00 0.00 100 1009.4
20260905080528 79 229 0.0 1.0 0.00 0.00 0.00 100 1009.4
20260905080027 81 229 0.0 1.0 0.00 0.00 0.00 100 1009.4
20260905075509 81 229 0.0 1.0 0.00 0.00 0.00 100 1009.4
20260905075000 82 7 0.0 0.0 0.00 0.00 0.00 100 1009.4
20260905074204 79 7 0.0 0.0 0.00 0.00 0.00 100 1009.4
20260905073640 81 7 0.0 0.0 0.00 0.00 0.00 100 1009.4
20260905072913 83 7 0.0 2.0 0.00 0.00 0.00 100 1009.4
20260905072407 83 7 0.0 4.0 0.00 0.00 0.00 100 1009.4
20260905071827 80 7 0.0 5.0 0.00 0.00 0.00 100 1009.4
20260905071324 85 14 3.0 6.0 0.00 0.00 0.00 100 1009.4
20260905070323 88 292 3.0 9.0 0.00 0.00 0.00 100 1009.4
20260905065822 85 275 6.0 10.0 0.00 0.00 0.00 100 1009.4
20260905065544 84 246 6.0 10.0 0.00 0.00 0.00 100 1009.4
20260905064821 85 264 6.0 10.0 0.00 0.00 0.00 100 1009.4
20260905064321 86 272 5.0 10.0 0.00 0.00 0.00 100 1009.4
20260905063820 86 258 6.0 10.0 0.00 0.00 0.00 100 1009.4
20260905063319 86 272 8.0 13.0 0.00 0.00 0.00 100 1009.4
20260905062818 87 246 5.0 13.0 0.00 0.00 0.00 100 1009.4
20260905061817 87 248 10.0 12.0 0.00 0.00 0.00 100 1009.4
20260905061317 87 237 9.0 12.0 0.00 0.00 0.00 100 1009.4
20260905060817 88 254 7.0 10.0 0.00 0.00 0.00 100 1009.4
20260905060542 89 248 7.0 10.0 0.00 0.00 0.00 100 1009.4
20260905055815 89 251 7.0 10.0 0.00 0.00 0.00 100 1009.4
20260905055315 89 264 8.0 11.0 0.00 0.00 0.00 100 1009.4
20260905054814 89 254 6.0 11.0 0.00 0.00 0.00 100 1009.4
20260905054313 89 262 8.0 11.0 0.00 0.00 0.00 100 1009.4
20260905053813 89 248 7.0 9.0 0.00 0.00 0.00 100 1009.4
20260905053312 90 275 5.0 9.0 0.00 0.00 0.00 100 1009.4
20260905052811 89 243 7.0 8.0 0.00 0.00 0.00 100 1009.4
20260905052311 89 255 3.0 7.0 0.00 0.00 0.00 100 1009.4
20260905051810 90 257 4.0 6.0 0.00 0.00 0.00 100 1009.4
20260905051310 90 255 4.0 6.0 0.00 0.00 0.00 100 1009.4
20260905050809 90 246 4.0 10.0 0.00 0.00 0.00 100 1009.4
20260905050308 90 248 4.0 10.0 0.00 0.00 0.00 100 1009.4
20260905045808 90 275 6.0 10.0 0.00 0.00 0.00 100 1009.4
20260905045307 90 271 5.0 9.0 0.00 0.00 0.00 100 1009.4
20260905045028 90 265 4.0 10.0 0.00 0.00 0.00 100 1009.4
20260905044306 91 258 7.0 12.0 0.00 0.00 0.00 100 1009.4
20260905043805 90 265 9.0 13.0 0.00 0.00 0.00 100 1009.4
20260905043304 91 241 10.0 13.0 0.00 0.00 0.00 100 1009.4
20260905042804 91 258 9.0 13.0 0.00 0.00 0.00 100 1009.4
20260905042307 90 255 8.0 13.0 0.00 0.00 0.00 100 1009.4
20260905041803 91 246 9.0 14.0 0.00 0.00 0.00 100 1009.4
20260905041302 92 244 9.0 14.0 0.00 0.00 0.00 100 1009.4
20260905041023 91 264 8.0 14.0 0.00 0.00 0.00 100 1009.4
20260905040301 91 254 11.0 14.0 0.00 0.00 0.00 100 1009.4
20260905035800 91 253 9.0 13.0 0.00 0.00 0.00 100 1009.4
20260905035300 91 244 8.0 12.0 0.00 0.00 0.00 100 1009.4
20260905034759 91 258 8.0 13.0 0.00 0.00 0.00 100 1009.4
20260905034520 91 260 8.0 13.0 0.00 0.00 0.00 100 1009.4
20260905033759 92 255 11.0 13.0 0.00 0.00 0.00 100 1009.4
20260905033258 91 255 9.0 13.0 0.00 0.00 0.00 100 1009.4
20260905032757 91 239 10.0 18.0 0.00 0.00 0.00 100 1009.4
20260905032256 91 246 10.0 18.0 0.00 0.00 0.00 100 1009.4
20260905031755 91 261 8.0 12.0 0.00 0.00 0.00 100 1009.4
20260905031255 91 253 10.0 13.0 0.00 0.00 0.00 100 1009.4
20260905030754 91 232 8.0 13.0 0.00 0.00 0.00 100 1009.4
20260905030254 91 257 10.0 14.0 0.00 0.00 0.00 100 1009.4
20260905025753 91 268 9.0 15.0 0.00 0.00 0.00 100 1009.4
20260905025252 91 267 11.0 15.0 0.00 0.00 0.00 100 1009.4
20260905024752 91 268 9.0 14.0 0.00 0.00 0.00 100 1009.4
20260905024251 92 258 10.0 16.0 0.00 0.00 0.00 100 1009.4
20260905023751 92 251 10.0 16.0 0.00 0.00 0.00 100 1009.4
20260905023250 92 248 11.0 18.0 0.00 0.00 0.00 100 1009.4
20260905023012 92 258 11.0 18.0 0.00 0.00 0.00 100 1009.4
20260905022250 92 265 12.0 18.0 0.00 0.00 0.00 100 1009.4
20260905021749 92 246 10.0 18.0 0.00 0.00 0.00 100 1009.4
20260905021248 92 250 10.0 14.0 0.00 0.00 0.00 100 1009.4
20260905021012 93 253 8.0 13.0 0.00 0.00 0.00 100 1009.4
20260905020247 92 261 9.0 13.0 0.00 0.00 0.00 100 1009.4
20260905020013 93 274 8.0 14.0 0.00 0.00 0.00 100 1009.4
20260905015245 93 262 10.0 14.0 0.00 0.00 0.00 100 1009.4
20260905015007 93 282 9.0 14.0 0.00 0.00 0.00 100 1009.4
20260905014244 93 265 8.0 15.0 0.00 0.00 0.00 100 1009.4
20260905013743 93 243 8.0 15.0 0.00 0.00 0.00 100 1009.4
20260905013243 93 295 9.0 15.0 0.00 0.00 0.00 100 1009.4
20260905012743 93 257 5.0 17.0 0.00 0.00 0.00 100 1009.4
20260905012242 94 243 10.0 17.0 0.00 0.00 0.00 100 1009.4
20260905011741 94 267 9.0 16.0 0.00 0.00 0.00 100 1009.4
20260905011508 94 240 8.0 19.0 0.00 0.00 0.00 100 1009.4
20260905010740 94 257 13.0 19.0 0.00 0.00 0.00 100 1009.4
20260905010239 94 241 8.0 11.0 0.00 0.00 0.00 100 1009.4
20260905005739 95 233 7.0 12.0 0.00 0.00 0.00 100 1009.4
20260905005238 94 232 5.0 12.0 0.00 0.00 0.00 100 1009.4
20260905004738 94 151 1.0 11.0 0.00 0.00 0.00 100 1009.4
20260905004237 94 189 5.0 11.0 0.00 0.00 0.00 100 1009.4
20260905003736 94 236 5.0 11.0 0.00 0.00 0.00 100 1009.4
20260905003236 94 244 1.0 8.0 0.00 0.00 0.00 100 1009.4
20260905002735 94 282 0.0 8.0 0.00 0.00 0.00 100 1009.4
20260905002500 94 250 5.0 8.0 0.00 0.00 0.00 100 1009.4
20260905001731 94 241 3.0 10.0 0.00 0.00 0.00 100 1009.4
20260905001232 93 281 1.0 12.0 0.00 0.00 0.00 100 1009.4
20260905000731 94 282 8.0 12.0 0.00 0.00 0.00 100 1009.4
20260905000229 95 248 6.0 11.0 0.00 0.00 0.00 100 1009.4
20260904235948 95 244 7.0 13.0 0.00 0.00 0.00 100 1009.4
20260904235450 94 299 6.0 13.0 0.00 0.00 0.00 100 1009.4
20260904234728 93 262 9.0 16.0 0.00 0.00 0.00 100 1009.4
20260904234227 94 275 8.0 16.0 0.00 0.00 0.00 100 1009.4
20260904233727 95 250 5.0 15.0 0.00 0.00 0.00 100 1009.4
20260904233443 94 205 7.0 15.0 0.00 0.00 0.00 100 1009.4
20260904232726 95 234 7.0 15.0 0.00 0.00 0.00 100 1009.4
20260904232225 95 220 8.0 14.0 0.00 0.00 0.00 100 1009.4
20260904231953 95 253 3.0 13.0 0.00 0.00 0.00 100 1009.4
20260904231458 95 271 9.0 13.0 0.00 0.00 0.00 100 1009.4
20260904230724 95 279 10.0 13.0 0.00 0.00 0.00 100 1009.4
20260904230223 96 246 9.0 13.0 0.00 0.00 0.00 100 1009.4
20260904225722 97 234 7.0 14.0 0.00 0.00 0.00 100 1009.4
20260904225445 95 206 8.0 16.0 0.00 0.00 0.00 100 1009.4
20260904224721 95 262 9.0 16.0 0.00 0.00 0.00 100 1009.4
20260904224220 94 247 10.0 15.0 0.00 0.00 0.00 100 1009.4
20260904223719 94 232 9.0 14.0 0.00 0.00 0.00 100 1009.4
20260904223220 94 244 11.0 14.0 0.00 0.00 0.00 100 1009.4
20260904222718 95 292 2.0 9.0 0.00 0.00 0.00 100 1009.4
20260904222211 95 229 0.0 8.0 0.00 0.00 0.00 100 1009.4
20260904221640 97 213 1.0 10.0 0.00 0.00 0.00 100 1009.4
20260904221140 97 181 6.0 17.0 0.00 0.00 0.00 100 1009.4
20260904220639 97 226 9.0 17.0 0.00 0.00 0.00 100 1009.4
20260904220139 95 254 7.0 18.0 0.00 0.00 0.00 100 1009.4
20260904215638 95 236 12.0 18.0 0.00 0.00 0.00 100 1009.4
20260904215137 98 206 6.0 13.0 0.00 0.00 0.00 100 1009.4
20260904214637 98 208 2.0 14.0 0.00 0.00 0.00 100 1009.4
20260904214136 98 265 6.0 14.0 0.00 0.00 0.00 100 1009.4
20260904213859 98 220 4.0 13.0 0.00 0.00 0.00 100 1009.4
20260904213136 97 279 2.0 9.0 0.00 0.00 0.00 100 1009.4
20260904212628 95 309 2.0 9.0 0.00 0.00 0.00 100 1009.4
20260904212347 95 306 0.0 17.0 0.00 0.00 0.00 100 1009.4
20260904211627 95 262 8.0 17.0 0.00 0.00 0.00 100 1009.4
20260904211127 97 258 10.0 14.0 0.00 0.00 0.00 100 1009.4
20260904210626 97 225 6.0 13.0 0.00 0.00 0.00 100 1009.4
20260904210125 97 222 8.0 12.0 0.00 0.00 0.00 100 1009.4
20260904205625 91 182 7.0 13.0 0.00 0.00 0.00 100 1009.4
20260904205124 91 154 6.0 14.0 0.00 0.00 0.00 100 1009.4
20260904204623 91 188 9.0 16.0 0.00 0.00 0.00 100 1009.4
20260904204122 91 208 6.0 16.0 0.00 0.00 0.00 100 1009.4
20260904203623 92 175 4.0 13.0 0.00 0.00 0.00 100 1009.4
20260904203122 91 222 5.0 11.0 0.00 0.00 0.00 100 1009.4
20260904202621 94 40 1.0 12.0 0.00 0.00 0.00 100 1009.4
20260904202348 95 270 8.0 17.0 0.00 0.00 0.00 100 1009.4
20260904201620 95 160 6.0 18.0 0.00 0.00 0.00 100 1009.4
20260904200618 94 195 11.0 15.0 0.00 0.00 0.00 100 1009.4
20260904200118 93 150 9.0 17.0 0.00 0.00 0.00 100 1009.4
20260904195618 92 212 5.0 17.0 0.00 0.00 0.00 100 1009.4
20260904195117 92 233 4.0 14.0 0.00 0.00 0.00 100 1009.4
20260904194616 94 219 9.0 14.0 0.00 0.00 0.00 100 1009.4
20260904194116 93 220 10.0 13.0 0.00 0.00 0.00 100 1009.4
20260904193615 93 127 6.0 13.0 0.00 0.00 0.00 100 1009.4
20260904193114 93 187 11.0 13.0 0.00 0.00 0.00 100 1009.4
20260904192614 92 201 6.0 18.0 0.00 0.00 0.00 100 1009.4
20260904192113 90 168 11.0 18.0 0.00 0.00 0.00 100 1009.4
20260904191612 92 184 5.0 18.0 0.00 0.00 0.00 100 1009.4
20260904191112 89 185 13.0 18.0 0.00 0.00 0.00 100 1009.4
20260904190611 90 226 3.0 16.0 0.00 0.00 0.00 100 1009.4
20260904190111 92 227 6.0 16.0 0.00 0.00 0.00 100 1009.4
20260904185611 91 199 7.0 15.0 0.00 0.00 0.00 100 1009.4
20260904185326 88 208 2.0 15.0 0.00 0.00 0.00 100 1009.4
20260904184553 89 272 9.0 15.0 0.00 0.00 0.00 100 1009.4
20260904184052 91 243 5.0 15.0 0.00 0.00 0.00 100 1009.4
20260904183552 92 25 10.0 14.0 0.00 0.00 0.00 100 1009.4
20260904183051 90 206 6.0 15.0 0.00 0.00 0.00 100 1009.4
20260904182812 89 188 8.0 15.0 0.00 0.00 0.00 100 1009.4
20260904182050 86 202 6.0 15.0 0.00 0.00 0.00 100 1009.4
20260904181549 88 178 9.0 15.0 0.00 0.00 0.00 100 1009.4
20260904181049 89 203 9.0 15.0 0.00 0.00 0.00 100 1009.4
20260904180548 86 137 9.0 17.0 0.00 0.00 0.00 100 1009.4
20260904180047 87 163 6.0 18.0 0.00 0.00 0.00 100 1009.4
20260904175547 87 133 9.0 18.0 0.00 0.00 0.00 100 1009.4
20260904175311 87 199 7.0 17.0 0.00 0.00 0.00 100 1009.4
20260904174545 88 150 9.0 17.0 0.00 0.00 0.00 100 1009.4
20260904174044 87 220 10.0 16.0 0.00 0.00 0.00 100 1009.4
20260904173545 89 163 7.0 17.0 0.00 0.00 0.00 100 1009.4
20260904173311 89 172 3.0 17.0 0.00 0.00 0.00 100 1009.4
20260904172543 89 195 11.0 17.0 0.00 0.00 0.00 100 1009.4
20260904172043 89 216 8.0 15.0 0.00 0.00 0.00 100 1009.4
20260904171542 88 153 10.0 15.0 0.00 0.00 0.00 100 1009.4